TimePST,TemperatureF,Dew PointF,Humidity,Sea Level PressureIn,VisibilityMPH,Wind Direction,Wind SpeedMPH,Gust SpeedMPH,PrecipitationIn,Events,Conditions,WindDirDegrees,DateUTC
12:53 AM,30.0,24.1,79,29.97,10.0,South,6.9,-,N/A,,Clear,190,2013-03-07 08:53:00
1:53 AM,28.9,23.0,78,30.00,10.0,South,11.5,-,N/A,,Clear,170,2013-03-07 09:53:00
2:53 AM,26.1,21.0,81,30.01,10.0,SW,4.6,-,N/A,,Clear,230,2013-03-07 10:53:00
3:53 AM,26.1,21.9,84,30.03,10.0,SSW,5.8,-,N/A,,Clear,200,2013-03-07 11:53:00
4:53 AM,19.9,17.1,89,30.06,10.0,Calm,Calm,-,N/A,,Clear,0,2013-03-07 12:53:00
5:53 AM,21.9,19.9,92,30.08,10.0,Calm,Calm,-,N/A,,Clear,0,2013-03-07 13:53:00
6:53 AM,21.0,19.9,96,30.10,10.0,Calm,Calm,-,N/A,,Clear,0,2013-03-07 14:53:00
7:53 AM,28.9,24.1,82,30.09,10.0,Calm,Calm,-,N/A,,Clear,0,2013-03-07 15:53:00
8:53 AM,32.0,25.0,75,30.10,10.0,Calm,Calm,-,N/A,,Clear,0,2013-03-07 16:53:00
9:53 AM,36.0,28.0,73,30.09,10.0,Calm,Calm,-,N/A,,Clear,0,2013-03-07 17:53:00
10:53 AM,39.9,28.0,63,30.09,10.0,Calm,Calm,-,N/A,,Clear,0,2013-03-07 18:53:00
11:53 AM,42.1,21.9,45,30.07,10.0,Variable,4.6,-,N/A,,Partly Cloudy,0,2013-03-07 19:53:00
12:53 PM,44.1,19.9,38,30.04,10.0,ENE,5.8,-,N/A,,Scattered Clouds,60,2013-03-07 20:53:00
1:53 PM,44.1,19.9,38,30.03,10.0,NE,5.8,-,N/A,,Partly Cloudy,40,2013-03-07 21:53:00
2:53 PM,45.0,19.0,36,30.02,10.0,East,4.6,-,N/A,,Partly Cloudy,100,2013-03-07 22:53:00
3:53 PM,45.0,19.0,36,30.01,10.0,East,6.9,-,N/A,,Clear,100,2013-03-07 23:53:00
4:53 PM,44.1,18.0,35,30.02,10.0,East,3.5,-,N/A,,Clear,90,2013-03-08 00:53:00
5:53 PM,39.0,19.0,45,30.03,10.0,East,3.5,-,N/A,,Clear,100,2013-03-08 01:53:00
6:53 PM,33.1,23.0,66,30.05,10.0,West,5.8,-,N/A,,Clear,260,2013-03-08 02:53:00
7:53 PM,25.0,19.9,81,30.06,10.0,Calm,Calm,-,N/A,,Clear,0,2013-03-08 03:53:00
8:53 PM,26.1,19.9,78,30.05,10.0,Calm,Calm,-,N/A,,Clear,0,2013-03-08 04:53:00
9:53 PM,26.1,19.9,78,30.04,10.0,SW,4.6,-,N/A,,Clear,230,2013-03-08 05:53:00
10:53 PM,27.0,19.9,75,30.02,10.0,Calm,Calm,-,N/A,,Clear,0,2013-03-08 06:53:00
11:53 PM,25.0,19.0,78,30.02,10.0,Calm,Calm,-,N/A,,Clear,0,2013-03-08 07:53:00